SM6PGP-2 Weather Reports


Display with metric or nautical units.
time (UTC)temp
F
wind
direction
speed
MPH
gust
MPH
rain 1hr
in
rain 24hr
in
rain mn
in
humidity
%
barometer
mb
20180719091908 74 258 5.0 11.0 0.00 0.00 0.00 58 1014.8
20180719091403 74 270 8.0 12.0 0.00 0.00 0.00 60 1014.7
20180719090857 73 270 8.0 9.0 0.00 0.00 0.00 61 1014.7
20180719090352 73 270 13.0 13.0 0.00 0.00 0.00 60 1014.7
20180719090104 73 270 10.0 13.0 0.00 0.00 0.00 61 1014.8
20180719085847 73 270 10.0 13.0 0.00 0.00 0.00 61 1014.8
20180719085630 74 270 8.0 13.0 0.00 0.00 0.00 61 1014.7
20180719085342 74 270 8.0 13.0 0.00 0.00 0.00 61 1014.7
20180719084943 73 270 2.0 10.0 0.00 0.00 0.00 61 1014.8
20180719084837 73 270 2.0 10.0 0.00 0.00 0.00 61 1014.8
20180719084331 73 270 6.0 8.0 0.00 0.00 0.00 62 1014.7
20180719083826 73 270 3.0 12.0 0.00 0.00 0.00 61 1014.9
20180719083321 72 270 6.0 9.0 0.00 0.00 0.00 63 1014.9
20180719083230 73 261 5.0 10.0 0.00 0.00 0.00 62 1014.9
20180719082817 73 261 6.0 12.0 0.00 0.00 0.00 62 1014.9
20180719082311 73 270 9.0 11.0 0.00 0.00 0.00 63 1014.9
20180719081805 73 261 5.0 10.0 0.00 0.00 0.00 62 1014.9
20180719081300 73 261 1.0 9.0 0.00 0.00 0.00 63 1014.9
20180719080755 73 270 5.0 9.0 0.00 0.00 0.00 64 1014.9
20180719080250 72 225 3.0 10.0 0.00 0.00 0.00 62 1015.0
20180719075745 72 270 6.0 9.0 0.00 0.00 0.00 64 1015.0
20180719075240 72 324 6.0 10.0 0.00 0.00 0.00 64 1015.1
20180719074734 72 0 3.0 12.0 0.00 0.00 0.00 65 1015.1
20180719074229 72 270 10.0 12.0 0.00 0.00 0.00 65 1015.1
20180719074051 72 270 5.0 6.0 0.00 0.00 0.00 65 1015.0
20180719073724 72 270 5.0 6.0 0.00 0.00 0.00 65 1015.0
20180719073219 72 270 0.0 9.0 0.00 0.00 0.00 66 1015.1
20180719072714 72 252 7.0 11.0 0.00 0.00 0.00 65 1014.9
20180719072209 72 288 7.0 8.0 0.00 0.00 0.00 66 1015.0
20180719071703 72 270 4.0 10.0 0.00 0.00 0.00 67 1015.0
20180719071158 72 270 5.0 8.0 0.00 0.00 0.00 67 1014.9
20180719070653 72 306 1.0 10.0 0.00 0.00 0.00 67 1014.9
20180719070233 71 270 3.0 12.0 0.00 0.00 0.00 68 1014.9
20180719070148 71 270 3.0 12.0 0.00 0.00 0.00 68 1014.9
20180719065642 71 261 9.0 11.0 0.00 0.00 0.00 68 1014.8
20180719065137 70 243 1.0 8.0 0.00 0.00 0.00 69 1014.9
20180719064921 70 270 4.0 10.0 0.00 0.00 0.00 68 1014.9
20180719064632 70 270 4.0 10.0 0.00 0.00 0.00 68 1014.9
20180719064127 71 270 8.0 9.0 0.00 0.00 0.00 67 1015.0
20180719063622 72 270 8.0 8.0 0.00 0.00 0.00 69 1014.9
20180719063116 71 180 2.0 7.0 0.00 0.00 0.00 68 1015.0
20180719062713 71 270 5.0 7.0 0.00 0.00 0.00 67 1015.0
20180719062611 71 270 5.0 7.0 0.00 0.00 0.00 67 1015.0
20180719062107 71 306 2.0 6.0 0.00 0.00 0.00 70 1014.9
20180719061601 71 306 2.0 6.0 0.00 0.00 0.00 70 1014.9
20180719061056 71 270 5.0 9.0 0.00 0.00 0.00 70 1014.9
20180719060550 70 270 6.0 7.0 0.00 0.00 0.00 73 1014.8
20180719060045 69 306 3.0 5.0 0.00 0.00 0.00 75 1014.9
20180719055541 68 288 3.0 7.0 0.00 0.00 0.00 76 1014.9
20180719055035 67 270 3.0 6.0 0.00 0.00 0.00 78 1014.8
20180719054530 67 270 2.0 9.0 0.00 0.00 0.00 78 1014.9
20180719054411 67 348 5.0 8.0 0.00 0.00 0.00 78 1014.9
20180719053519 67 0 3.0 6.0 0.00 0.00 0.00 78 1014.8
20180719053015 67 288 5.0 5.0 0.00 0.00 0.00 78 1014.7
20180719052509 67 288 3.0 6.0 0.00 0.00 0.00 79 1014.7
20180719052004 66 306 1.0 6.0 0.00 0.00 0.00 80 1014.7
20180719051459 66 270 3.0 6.0 0.00 0.00 0.00 80 1014.7
20180719050953 66 337 2.0 5.0 0.00 0.00 0.00 81 1014.7
20180719050449 66 0 3.0 4.0 0.00 0.00 0.00 81 1014.8
20180719045943 65 270 1.0 5.0 0.00 0.00 0.00 81 1014.7
20180719045438 65 225 0.0 1.0 0.00 0.00 0.00 83 1014.7
20180719044933 65 270 0.0 4.0 0.00 0.00 0.00 82 1014.5
20180719044427 65 243 4.0 4.0 0.00 0.00 0.00 83 1014.5
20180719043923 65 180 0.0 1.0 0.00 0.00 0.00 83 1014.5
20180719043417 65 180 1.0 3.0 0.00 0.00 0.00 85 1014.5
20180719042912 65 180 1.0 2.0 0.00 0.00 0.00 86 1014.5
20180719042407 64 180 0.0 1.0 0.00 0.00 0.00 87 1014.4
20180719042134 62 180 0.0 0.0 0.00 0.00 0.00 91 1014.5
20180719041901 63 180 3.0 3.0 0.00 0.00 0.00 89 1014.5
20180719041357 62 180 0.0 0.0 0.00 0.00 0.00 91 1014.5
20180719040923 62 180 0.0 0.0 0.00 0.00 0.00 90 1014.6
20180719040851 62 180 0.0 0.0 0.00 0.00 0.00 90 1014.6
20180719040346 62 180 0.0 0.0 0.00 0.00 0.00 91 1014.6
20180719035841 61 180 0.0 0.0 0.00 0.00 0.00 89 1014.5
20180719035335 61 135 0.0 0.0 0.00 0.00 0.00 90 1014.5
20180719035055 61 225 0.0 4.0 0.00 0.00 0.00 92 1014.4
20180719034831 61 225 0.0 4.0 0.00 0.00 0.00 92 1014.4
20180719034325 61 225 2.0 3.0 0.00 0.00 0.00 92 1014.5
20180719033820 61 270 3.0 3.0 0.00 0.00 0.00 93 1014.5
20180719033315 60 270 0.0 2.0 0.00 0.00 0.00 90 1014.5
20180719032809 60 225 0.0 0.0 0.00 0.00 0.00 91 1014.5
20180719032305 60 180 0.0 0.0 0.00 0.00 0.00 90 1014.5
20180719031759 60 180 0.0 0.0 0.00 0.00 0.00 88 1014.5
20180719031254 61 180 0.0 0.0 0.00 0.00 0.00 88 1014.5
20180719030749 61 180 0.0 0.0 0.00 0.00 0.00 88 1014.5
20180719030243 61 0 0.0 0.0 0.00 0.00 0.00 88 1014.5
20180719025739 61 0 0.0 0.0 0.00 0.00 0.00 87 1014.4
20180719024725 62 0 0.0 0.0 0.00 0.00 0.00 90 1014.4
20180719024220 62 346 0.0 1.0 0.00 0.00 0.00 89 1014.5
20180719023714 62 346 0.0 0.0 0.00 0.00 0.00 85 1014.5
20180719023210 62 0 1.0 1.0 0.00 0.00 0.00 86 1014.4
20180719022704 63 346 0.0 0.0 0.00 0.00 0.00 85 1014.5
20180719022159 63 346 1.0 2.0 0.00 0.00 0.00 85 1014.5
20180719021654 63 0 0.0 2.0 0.00 0.00 0.00 88 1014.5
20180719021149 63 270 1.0 4.0 0.00 0.00 0.00 85 1014.6
20180719020644 63 337 2.0 5.0 0.00 0.00 0.00 85 1014.5
20180719020138 63 270 4.0 7.0 0.00 0.00 0.00 85 1014.6
20180719015633 63 270 1.0 5.0 0.00 0.00 0.00 85 1014.7
20180719015128 63 261 3.0 3.0 0.00 0.00 0.00 85 1014.6
20180719014623 63 0 0.0 1.0 0.00 0.00 0.00 87 1014.7
20180719014118 63 346 0.0 1.0 0.00 0.00 0.00 88 1014.6
20180719013612 63 0 1.0 5.0 0.00 0.00 0.00 85 1014.6
20180719013107 63 270 0.0 3.0 0.00 0.00 0.00 87 1014.6
20180719012602 63 346 2.0 6.0 0.00 0.00 0.00 87 1014.6
20180719012057 64 306 2.0 4.0 0.00 0.00 0.00 85 1014.8
20180719011552 64 346 1.0 4.0 0.00 0.00 0.00 86 1014.8
20180719011046 64 270 2.0 4.0 0.00 0.00 0.00 85 1014.8
20180719010541 64 270 3.0 5.0 0.00 0.00 0.00 89 1014.7
20180719010036 64 0 2.0 4.0 0.00 0.00 0.00 91 1014.8
20180719005531 64 270 2.0 3.0 0.00 0.00 0.00 87 1014.8
20180719005026 64 270 0.0 1.0 0.00 0.00 0.00 88 1014.8
20180719004520 64 270 2.0 5.0 0.00 0.00 0.00 85 1014.9
20180719004015 64 270 2.0 6.0 0.00 0.00 0.00 84 1014.9
20180719003510 64 0 2.0 5.0 0.00 0.00 0.00 85 1014.9
20180719003005 64 0 2.0 3.0 0.00 0.00 0.00 85 1014.9
20180719002500 64 270 2.0 4.0 0.00 0.00 0.00 85 1014.9
20180719001954 64 270 1.0 2.0 0.00 0.00 0.00 85 1014.9
20180719001449 64 270 0.0 1.0 0.00 0.00 0.00 87 1015.0
20180719000944 64 270 0.0 2.0 0.00 0.00 0.00 88 1015.0
20180719000439 64 319 3.0 3.0 0.00 0.00 0.00 85 1015.0
20180718235934 64 346 0.0 2.0 0.00 0.00 0.00 85 1014.9
20180718235428 64 0 2.0 2.0 0.00 0.00 0.00 87 1015.0
20180718234923 64 0 0.0 1.0 0.00 0.00 0.00 86 1015.0
20180718234418 64 0 2.0 3.0 0.00 0.00 0.00 86 1015.0
20180718233913 64 270 2.0 2.0 0.00 0.00 0.00 85 1015.0
20180718233408 64 337 2.0 4.0 0.00 0.00 0.00 88 1015.0
20180718232902 64 342 3.0 3.0 0.00 0.00 0.00 86 1015.0
20180718232357 64 225 0.0 4.0 0.00 0.00 0.00 86 1015.1
20180718231852 64 225 0.0 0.0 0.00 0.00 0.00 86 1015.1
20180718231521 64 225 1.0 4.0 0.00 0.00 0.00 87 1015.0
20180718231347 64 225 1.0 4.0 0.00 0.00 0.00 87 1015.0
20180718230842 64 270 0.0 4.0 0.00 0.00 0.00 90 1015.0
20180718230336 64 346 3.0 3.0 0.00 0.00 0.00 86 1015.0
20180718225831 64 0 0.0 4.0 0.00 0.00 0.00 91 1015.0
20180718225326 64 270 1.0 3.0 0.00 0.00 0.00 86 1014.9
20180718224821 64 270 1.0 4.0 0.00 0.00 0.00 88 1014.9
20180718224316 64 337 0.0 4.0 0.00 0.00 0.00 90 1014.9
20180718223810 64 225 0.0 4.0 0.00 0.00 0.00 86 1014.9
20180718223305 64 225 3.0 3.0 0.00 0.00 0.00 87 1014.9
20180718222800 64 288 6.0 8.0 0.00 0.00 0.00 86 1014.9
20180718222255 64 243 2.0 6.0 0.00 0.00 0.00 86 1014.8
20180718221750 64 0 5.0 6.0 0.00 0.00 0.00 86 1014.8
20180718221244 64 0 3.0 7.0 0.00 0.00 0.00 87 1014.9
20180718220739 64 288 3.0 8.0 0.00 0.00 0.00 86 1014.8
20180718220234 65 270 4.0 8.0 0.00 0.00 0.00 90 1014.8
20180718215729 65 288 3.0 10.0 0.00 0.00 0.00 86 1014.8
20180718215224 65 0 5.0 12.0 0.00 0.00 0.00 86 1014.7
20180718214718 65 0 4.0 5.0 0.00 0.00 0.00 87 1014.7
20180718214213 65 0 5.0 8.0 0.00 0.00 0.00 87 1014.6
20180718213708 65 0 3.0 6.0 0.00 0.00 0.00 87 1014.6
20180718213203 65 324 1.0 7.0 0.00 0.00 0.00 88 1014.5
20180718212659 65 288 3.0 7.0 0.00 0.00 0.00 88 1014.4
20180718212152 65 0 1.0 3.0 0.00 0.00 0.00 88 1014.4
20180718211647 65 0 0.0 5.0 0.00 0.00 0.00 88 1014.4
20180718211142 65 270 2.0 5.0 0.00 0.00 0.00 89 1014.4
20180718210637 64 288 5.0 7.0 0.00 0.00 0.00 87 1014.4
20180718210132 64 0 3.0 4.0 0.00 0.00 0.00 89 1014.5
20180718205626 64 306 3.0 5.0 0.00 0.00 0.00 88 1014.4
20180718205121 64 270 2.0 4.0 0.00 0.00 0.00 88 1014.4
20180718204616 64 342 8.0 8.0 0.00 0.00 0.00 88 1014.3
20180718203603 64 270 2.0 8.0 0.00 0.00 0.00 88 1014.3
20180718203057 64 0 0.0 4.0 0.00 0.00 0.00 87 1014.4
20180718202552 64 288 3.0 8.0 0.00 0.00 0.00 87 1014.3
20180718202047 64 306 7.0 9.0 0.00 0.00 0.00 87 1014.3
20180718201542 65 225 2.0 9.0 0.00 0.00 0.00 87 1014.4
20180718201037 65 270 6.0 8.0 0.00 0.00 0.00 87 1014.3
20180718200531 65 288 5.0 9.0 0.00 0.00 0.00 86 1014.4
20180718200026 65 0 1.0 9.0 0.00 0.00 0.01 86 1014.3
20180718195521 65 292 3.0 11.0 0.00 0.00 0.01 85 1014.3
20180718195016 65 0 0.0 2.0 0.00 0.00 0.01 84 1014.3
20180718194511 65 270 3.0 11.0 0.00 0.00 0.01 84 1014.3
20180718194006 66 0 1.0 6.0 0.00 0.00 0.01 83 1014.3
20180718193500 66 198 2.0 8.0 0.00 0.00 0.01 82 1014.3
20180718192955 67 324 4.0 6.0 0.00 0.00 0.01 81 1014.2
20180718192450 67 270 7.0 7.0 0.00 0.00 0.01 80 1014.1
20180718191945 67 288 7.0 8.0 0.00 0.00 0.01 79 1014.1
20180718191440 68 270 5.0 11.0 0.00 0.00 0.01 79 1014.1
20180718191030 69 306 12.0 13.0 0.00 0.00 0.01 77 1014.1
20180718190935 68 270 2.0 12.0 0.00 0.00 0.01 77 1014.2
20180718190429 69 306 12.0 13.0 0.00 0.00 0.01 77 1014.1
20180718185924 69 337 3.0 10.0 0.00 0.00 0.01 76 1014.1
20180718185419 69 288 9.0 11.0 0.00 0.00 0.01 75 1014.0
20180718184914 70 270 12.0 12.0 0.00 0.00 0.01 74 1014.1
20180718184408 70 306 9.0 11.0 0.00 0.00 0.01 74 1014.0
20180718183903 70 270 6.0 6.0 0.00 0.00 0.01 74 1014.0
20180718183358 71 270 6.0 10.0 0.00 0.00 0.01 74 1014.1
20180718182853 71 270 2.0 12.0 0.00 0.00 0.01 73 1014.1
20180718182348 72 337 5.0 10.0 0.00 0.00 0.01 72 1014.0
20180718181842 72 30 4.0 10.0 0.00 0.00 0.01 72 1014.0
20180718181337 72 270 6.0 11.0 0.00 0.00 0.01 72 1013.9
20180718180832 72 337 10.0 12.0 0.00 0.00 0.01 71 1013.9
20180718180327 72 270 14.0 16.0 0.00 0.00 0.01 70 1013.8
20180718175822 73 225 9.0 11.0 0.00 0.00 0.01 70 1013.7
20180718175316 73 261 13.0 16.0 0.00 0.00 0.01 70 1013.8
20180718174811 74 270 7.0 11.0 0.00 0.00 0.01 70 1013.6
20180718174306 74 288 8.0 16.0 0.00 0.00 0.01 70 1013.7
20180718173801 74 261 8.0 14.0 0.00 0.00 0.01 70 1013.7
20180718173256 74 306 9.0 13.0 0.00 0.00 0.01 71 1013.7
20180718172751 75 288 7.0 11.0 0.00 0.00 0.01 71 1013.7
20180718172548 74 270 10.0 10.0 0.00 0.00 0.01 74 1013.6
20180718172245 75 306 5.0 11.0 0.00 0.00 0.01 73 1013.7
20180718171740 74 270 10.0 10.0 0.00 0.00 0.01 74 1013.6
20180718171235 74 0 4.0 9.0 0.00 0.00 0.01 75 1013.8
20180718170730 74 288 9.0 12.0 0.00 0.00 0.01 75 1013.7
20180718170225 73 243 8.0 12.0 0.00 0.00 0.01 76 1013.8
20180718165719 73 288 9.0 9.0 0.00 0.00 0.01 77 1013.7
20180718165413 73 337 11.0 11.0 0.00 0.00 0.01 76 1013.6
20180718165411 73 306 7.0 7.0 0.00 0.00 0.01 75 1013.6
20180718165214 73 337 11.0 11.0 0.00 0.00 0.01 76 1013.6
20180718164709 73 135 4.0 11.0 0.00 0.00 0.01 75 1013.7
20180718164204 73 306 7.0 7.0 0.00 0.00 0.01 75 1013.6
20180718163659 73 0 6.0 9.0 0.00 0.00 0.01 74 1013.5
20180718163449 73 306 7.0 7.0 0.00 0.00 0.01 74 1013.6
20180718163447 73 258 3.0 9.0 0.00 0.00 0.01 73 1013.5
20180718163153 73 306 7.0 7.0 0.00 0.00 0.01 74 1013.6
20180718162648 73 45 5.0 11.0 0.00 0.00 0.01 73 1013.5
20180718162143 73 258 3.0 9.0 0.00 0.00 0.01 73 1013.5
20180718161638 73 337 2.0 4.0 0.00 0.00 0.01 75 1013.4
20180718161139 73 270 0.0 9.0 0.00 0.00 0.01 75 1013.3
20180718161133 73 270 0.0 9.0 0.00 0.00 0.01 75 1013.3
20180718160627 73 315 1.0 6.0 0.00 0.00 0.01 75 1013.3
20180718160216 73 0 10.0 12.0 0.00 0.00 0.01 75 1013.2
20180718160122 73 0 10.0 12.0 0.00 0.00 0.01 75 1013.2
20180718155618 73 236 3.0 10.0 0.00 0.00 0.01 75 1013.3
20180718155352 73 315 4.0 10.0 0.00 0.00 0.01 75 1013.2
20180718155112 73 315 4.0 10.0 0.00 0.00 0.01 75 1013.2
20180718154912 73 0 2.0 10.0 0.00 0.00 0.01 76 1013.3
20180718154607 73 0 2.0 10.0 0.00 0.00 0.01 76 1013.3
20180718154102 73 195 5.0 11.0 0.00 0.00 0.01 76 1013.3
20180718153556 73 324 4.0 8.0 0.00 0.00 0.01 76 1013.3
20180718153052 73 225 2.0 8.0 0.00 0.00 0.01 76 1013.3
20180718152546 74 324 7.0 9.0 0.00 0.00 0.01 76 1013.4
20180718152034 74 288 4.0 6.0 0.00 0.00 0.01 76 1013.3
20180718152030 75 342 8.0 16.0 0.00 0.00 0.01 72 1013.3
20180718151536 74 288 4.0 6.0 0.00 0.00 0.01 76 1013.3
20180718151030 74 270 6.0 13.0 0.00 0.00 0.01 75 1013.3
20180718151000 75 342 8.0 16.0 0.00 0.00 0.01 72 1013.3
20180718150526 75 342 8.0 16.0 0.00 0.00 0.01 72 1013.3
20180718145515 75 301 2.0 10.0 0.00 0.00 0.01 66 1013.1
20180718145010 76 270 9.0 9.0 0.00 0.00 0.01 65 1013.1
20180718144855 75 0 2.0 6.0 0.00 0.00 0.01 66 1013.0
20180718144504 76 270 6.0 6.0 0.00 0.00 0.01 66 1013.0
20180718144000 75 0 2.0 6.0 0.00 0.00 0.01 66 1013.0
20180718143748 76 0 4.0 7.0 0.00 0.00 0.01 66 1013.0
20180718143454 76 0 4.0 7.0 0.00 0.00 0.01 66 1013.0
20180718142949 76 270 7.0 8.0 0.00 0.00 0.01 65 1013.0
20180718142904 76 288 4.0 8.0 0.00 0.00 0.01 67 1012.9
20180718141938 76 288 4.0 8.0 0.00 0.00 0.01 67 1012.9
20180718141434 76 288 2.0 3.0 0.00 0.00 0.01 67 1012.8
20180718140928 76 288 2.0 3.0 0.00 0.00 0.01 67 1012.8
20180718140423 76 36 3.0 5.0 0.00 0.00 0.01 66 1012.8
20180718135918 75 0 4.0 5.0 0.00 0.00 0.01 67 1012.7
20180718134908 75 270 1.0 5.0 0.00 0.00 0.01 69 1012.9
20180718134428 74 288 4.0 5.0 0.00 0.00 0.01 70 1013.0
20180718134402 74 324 5.0 6.0 0.00 0.00 0.01 70 1012.9
20180718133857 74 288 4.0 5.0 0.00 0.00 0.01 70 1013.0
20180718133352 74 270 3.0 5.0 0.00 0.00 0.01 72 1012.9
20180718132846 73 270 0.0 5.0 0.00 0.00 0.01 73 1013.0
20180718132342 73 135 0.0 7.0 0.00 0.00 0.01 73 1013.0
20180718131836 73 288 0.0 6.0 0.00 0.00 0.01 73 1013.0
20180718131535 73 355 4.0 6.0 0.00 0.00 0.01 73 1013.0
20180718131331 73 355 4.0 6.0 0.00 0.00 0.01 73 1013.0
20180718130826 73 337 4.0 6.0 0.00 0.00 0.01 72 1013.0
20180718130335 73 0 6.0 6.0 0.00 0.00 0.01 70 1013.2
20180718130320 73 346 5.0 8.0 0.00 0.00 0.01 72 1013.2
20180718125816 73 0 6.0 6.0 0.00 0.00 0.01 70 1013.2
20180718125310 73 198 2.0 6.0 0.00 0.00 0.01 71 1013.1
20180718124805 73 306 1.0 3.0 0.00 0.00 0.01 72 1013.2
20180718124300 73 331 3.0 3.0 0.00 0.00 0.01 71 1013.1
20180718123755 73 225 1.0 2.0 0.00 0.00 0.01 73 1013.1
20180718123250 73 288 3.0 6.0 0.00 0.00 0.01 72 1013.2
20180718122744 73 270 2.0 3.0 0.00 0.00 0.01 73 1013.3
20180718122239 73 306 3.0 8.0 0.00 0.00 0.01 74 1013.3
20180718121734 73 270 1.0 6.0 0.00 0.00 0.01 75 1013.3
20180718121229 73 288 4.0 10.0 0.00 0.00 0.01 75 1013.3
20180718120724 73 355 3.0 4.0 0.00 0.00 0.01 75 1013.4
20180718120629 73 288 9.0 12.0 0.00 0.00 0.01 74 1013.5
20180718120218 73 288 9.0 12.0 0.00 0.00 0.01 74 1013.5
20180718115713 73 270 1.0 2.0 0.00 0.00 0.01 75 1013.4
20180718115208 73 342 5.0 9.0 0.00 0.00 0.01 75 1013.5
20180718114703 73 225 0.0 2.0 0.00 0.00 0.01 76 1013.5
20180718114405 73 270 1.0 2.0 0.00 0.00 0.01 77 1013.4
20180718114158 73 234 2.0 5.0 0.00 0.00 0.01 76 1013.5
20180718113652 73 270 1.0 2.0 0.00 0.00 0.01 77 1013.4
20180718113147 73 135 0.0 2.0 0.00 0.00 0.01 76 1013.4
20180718112731 72 153 1.0 3.0 0.00 0.00 0.01 76 1013.4
20180718112642 72 153 1.0 3.0 0.00 0.00 0.01 76 1013.4
20180718111928 72 135 4.0 9.0 0.00 0.00 0.01 75 1013.2
20180718111632 72 135 4.0 9.0 0.00 0.00 0.01 75 1013.2
20180718111607 73 135 12.0 12.0 0.00 0.00 0.01 75 1013.1
20180718111126 73 135 12.0 12.0 0.00 0.00 0.01 75 1013.1
20180718110621 73 153 7.0 12.0 0.00 0.00 0.01 73 1013.0
20180718110116 74 135 11.0 13.0 0.00 0.00 0.01 72 1013.2
20180718105611 75 135 7.0 11.0 0.00 0.00 0.01 69 1013.2
20180718105106 76 135 7.0 16.0 0.00 0.00 0.01 68 1013.2
20180718104600 77 130 11.0 15.0 0.00 0.00 0.01 65 1013.2
20180718104055 78 135 7.0 7.0 0.00 0.00 0.01 60 1013.0
20180718103550 78 130 5.0 7.0 0.00 0.00 0.01 59 1012.8
20180718103117 78 355 2.0 2.0 0.00 0.00 0.01 59 1012.6
20180718103045 78 355 2.0 2.0 0.00 0.00 0.01 59 1012.6
20180718102826 79 22 2.0 3.0 0.00 0.00 0.01 58 1012.5
20180718102540 79 270 3.0 5.0 0.00 0.00 0.01 58 1012.5
20180718102034 79 22 2.0 3.0 0.00 0.00 0.01 58 1012.5
20180718101548 79 337 7.0 7.0 0.00 0.00 0.01 58 1012.3
20180718101529 79 150 3.0 5.0 0.00 0.00 0.01 58 1012.5
20180718101024 79 337 7.0 7.0 0.00 0.00 0.01 58 1012.3
20180718100950 80 105 4.0 9.0 0.00 0.00 0.01 57 1012.3
20180718100519 80 105 4.0 9.0 0.00 0.00 0.01 57 1012.3
20180718095508 80 337 6.0 8.0 0.00 0.00 0.01 57 1012.3
20180718095003 80 337 5.0 7.0 0.00 0.00 0.01 58 1012.3
20180718094458 81 337 4.0 7.0 0.00 0.00 0.01 57 1012.3
20180718093448 81 90 2.0 8.0 0.00 0.00 0.01 59 1012.2
20180718093047 81 292 3.0 6.0 0.00 0.00 0.01 60 1012.2
20180718092942 81 292 3.0 6.0 0.00 0.00 0.01 60 1012.2
20180718092450 80 144 1.0 5.0 0.00 0.00 0.01 60 1012.0
20180718092437 80 45 5.0 6.0 0.00 0.00 0.01 60 1012.1